THOR ABLESTAR DEB, 470

Orbit data source: Space-Track

THOR ABLESTAR DEB, 470 is space debris in LEO originally from a launch on Thu, 29 Jun 1961 UTC launched from the Air Force Eastern Test Range (AFETR). Debris objects in space refer to the collection of defunct objects orbiting the Earth. Examples of debris include non-operational satellites, rocket bodies, and fragments generated from explosions, collisions, or faulty payload assembly.

Loading next visibility...
Identifier
470, 1961-015FG
Orbit
LEO
Country
Flag of USUS
Related business
Manufacturer
Unknown
Mission
Spacecraft
Bus & Motor
Unknown
Mass
Unknown
Launch date (UTC)
1961-06-29 (65 years ago)
Launch vehicle
Unknown
Launch site
Air Force Eastern Test Range (AFETR)
Object type
Payload
Rocket body
Debris
Shape & HBR
Unknown shape, 0.2 m
Radar Cross Section
Medium (>0.1 m² and <1 m²)

Expand to show TLE details & history
Last TLE update: 2 days ago

TLE from 2 days ago
0 THOR ABLESTAR DEB
1   470U 61015FG  26171.43504699  .00000596  00000-0  38104-3 0  9990
2   470  66.2304 264.9657 0071799 318.6590  40.9071 14.09337886312857
Epoch: 2026-06-20T10:26Z
TLE epoch observation values (Epoch: 2026-06-20T10:26:28.059Z)
Latitude
-0.00008°
Longitude
-160.30096°
Altitude
824.56 km
Speed
7.461 km/s
True Right ascension
17h 39m 51s
True Declination
0° 00' 00"
Sunlit
Object was in full shadow at epoch
Visualization orbit readout
Latitude
Unknown
Longitude
Unknown
Altitude
Unknown
Speed
Unknown
Apparent Right ascension
Unknown
Apparent Declination
Unknown
Sunlit
N/A
Visualization observer readout
Local Sidereal Time
05:32:49
Azimuth
Unknown
Elevation
Unknown
Doppler factor
Unknown
Orbital elements
Apogee altitude
912.053 km
Perigee altitude
808.114 km
Semi-major axis
7,238.221 km
Eccentricity
0.00718
Inclination
66.2304°
RAAN
264.9657°
Arg. of periapsis
318.659°
True anomaly
41.44954°
Mean anomaly
40.9071°
Eccentric anomaly
41.17795°
Mean motion
3.52448 °/min
Orbital period
102.14 mins
BSTAR
0.00038104
Loading maneuver chart data...
Computing Atmospheric mass density...

Documentation

Showing up to 5 results
|